EW3476 Weather Reports


Display with metric or nautical units.
time (UTC)temp
F
wind
direction
speed
MPH
gust
MPH
rain 1hr
in
rain 24hr
in
rain mn
in
humidity
%
barometer
mb
20260906170218 97 120 3.0 8.0 0.00 0.00 0.00 45 1017.5
20260906165403 97 118 3.0 8.0 0.00 0.00 0.00 45 1017.6
20260906164503 96 51 3.0 9.0 0.00 0.00 0.00 47 1017.7
20260906163604 96 38 3.0 9.0 0.00 0.00 0.00 46 1017.7
20260906162703 95 63 4.0 9.0 0.00 0.00 0.00 47 1017.7
20260906161803 95 82 3.0 8.0 0.00 0.00 0.00 49 1017.8
20260906160904 94 134 3.0 8.0 0.00 0.00 0.00 48 1017.8
20260906160003 94 80 3.0 9.0 0.00 0.00 0.00 48 1017.9
20260906155403 94 66 3.0 8.0 0.00 0.00 0.00 49 1017.8
20260906154503 93 37 2.0 4.0 0.00 0.00 0.00 52 1017.7
20260906153603 92 58 2.0 7.0 0.00 0.00 0.00 54 1017.7
20260906152703 92 94 2.0 6.0 0.00 0.00 0.00 52 1017.7
20260906151803 91 73 1.0 4.0 0.00 0.00 0.00 54 1017.7
20260906150903 89 78 1.0 4.0 0.00 0.00 0.00 56 1017.6
20260906150003 89 88 1.0 3.0 0.00 0.00 0.00 58 1017.6
20260906145403 89 92 2.0 4.0 0.00 0.00 0.00 60 1017.6
20260906144503 88 98 1.0 4.0 0.00 0.00 0.00 62 1017.6
20260906143603 87 103 2.0 4.0 0.00 0.00 0.00 63 1017.6
20260906142703 86 139 1.0 4.0 0.00 0.00 0.00 65 1017.7
20260906141803 85 153 1.0 3.0 0.00 0.00 0.00 68 1017.8
20260906140903 84 154 1.0 3.0 0.00 0.00 0.00 69 1017.7
20260906140217 82 155 0.0 2.0 0.00 0.00 0.00 71 1017.6
20260906135403 82 155 1.0 3.0 0.00 0.00 0.00 75 1017.6
20260906134503 81 155 2.0 3.0 0.00 0.00 0.00 76 1017.6
20260906133603 79 0 0.0 0.0 0.00 0.00 0.00 79 1017.6
20260906132703 78 0 0.0 0.0 0.00 0.00 0.00 80 1017.6
20260906131803 77 0 0.0 0.0 0.00 0.00 0.00 83 1017.6
20260906130903 76 0 0.0 0.0 0.00 0.00 0.00 86 1017.5
20260906130003 75 0 0.0 0.0 0.00 0.00 0.00 86 1017.3
20260906125403 74 0 0.0 0.0 0.00 0.00 0.00 88 1017.3
20260906124503 72 0 0.0 0.0 0.00 0.00 0.00 91 1017.2
20260906123603 71 0 0.0 0.0 0.00 0.00 0.00 93 1017.1
20260906122703 70 0 0.0 0.0 0.00 0.00 0.00 93 1017.0
20260906121803 71 0 0.0 0.0 0.00 0.00 0.00 93 1016.9
20260906120903 70 148 1.0 3.0 0.00 0.00 0.00 94 1016.8
20260906120003 70 139 0.0 2.0 0.00 0.00 0.00 94 1016.9
20260906115403 70 0 0.0 0.0 0.00 0.00 0.00 94 1016.6
20260906114503 70 0 0.0 0.0 0.00 0.00 0.00 94 1016.5
20260906113817 70 0 0.0 0.0 0.00 0.00 0.00 95 1016.5
20260906112918 70 0 0.0 0.0 0.00 0.00 0.00 95 1016.4
20260906111803 70 0 0.0 0.0 0.00 0.00 0.00 94 1016.4
20260906110903 71 0 0.0 0.0 0.00 0.00 0.00 93 1016.4
20260906110003 71 0 0.0 0.0 0.00 0.00 0.00 93 1016.4
20260906105403 71 0 0.0 0.0 0.00 0.00 0.00 94 1016.3
20260906104503 70 0 0.0 0.0 0.00 0.00 0.00 95 1016.4
20260906103603 70 139 0.0 1.0 0.00 0.00 0.00 95 1016.3
20260906102703 70 139 0.0 1.0 0.00 0.00 0.00 94 1016.3
20260906101803 70 0 0.0 0.0 0.00 0.00 0.00 93 1016.2
20260906100903 71 0 0.0 0.0 0.00 0.00 0.00 93 1016.2
20260906100003 71 0 0.0 0.0 0.00 0.00 0.00 94 1016.2
20260906095403 71 0 0.0 0.0 0.00 0.00 0.00 93 1016.2
20260906094503 71 0 0.0 0.0 0.00 0.00 0.00 92 1016.2
20260906093603 71 0 0.0 0.0 0.00 0.00 0.00 92 1016.2
20260906092703 71 0 0.0 0.0 0.00 0.00 0.00 92 1016.1
20260906091803 72 0 0.0 0.0 0.00 0.00 0.00 92 1016.1
20260906090903 71 0 0.0 0.0 0.00 0.00 0.00 92 1016.1
20260906090003 71 0 0.0 0.0 0.00 0.00 0.00 92 1016.0
20260906085403 72 0 0.0 0.0 0.00 0.00 0.00 91 1015.9
20260906084718 72 0 0.0 0.0 0.00 0.00 0.00 90 1015.9
20260906083603 72 0 0.0 0.0 0.00 0.00 0.00 90 1015.9
20260906082703 73 0 0.0 0.0 0.00 0.00 0.00 89 1015.9
20260906081803 72 0 0.0 0.0 0.00 0.00 0.00 89 1015.9
20260906081117 72 0 0.0 0.0 0.00 0.00 0.00 90 1016.0
20260906080003 72 0 0.0 0.0 0.00 0.00 0.00 90 1015.9
20260906075403 72 0 0.0 0.0 0.00 0.00 0.00 90 1015.9
20260906074503 72 0 0.0 0.0 0.00 0.00 0.00 89 1015.8
20260906073603 73 0 0.0 0.0 0.00 0.00 0.00 88 1015.8
20260906072703 73 0 0.0 0.0 0.00 0.00 0.00 88 1015.9
20260906071803 74 138 0.0 2.0 0.00 0.00 0.00 85 1016.0
20260906070903 75 84 1.0 3.0 0.00 0.00 0.00 84 1016.0
20260906070003 74 65 0.0 2.0 0.00 0.00 0.00 86 1016.0
20260906065403 74 0 0.0 0.0 0.00 0.00 0.00 87 1016.0
20260906064503 74 65 0.0 1.0 0.00 0.00 0.00 86 1016.2
20260906063603 74 0 0.0 0.0 0.00 0.00 0.00 85 1016.2
20260906062918 74 0 0.0 0.0 0.00 0.00 0.00 84 1016.2
20260906061803 76 65 0.0 1.0 0.00 0.00 0.00 82 1016.3
20260906061117 76 65 0.0 1.0 0.00 0.00 0.00 82 1016.2
20260906060003 75 0 0.0 0.0 0.00 0.00 0.00 83 1016.1
20260906055403 76 0 0.0 0.0 0.00 0.00 0.00 82 1016.2
20260906054503 76 0 0.0 0.0 0.00 0.00 0.00 81 1016.1
20260906053603 77 0 0.0 0.0 0.00 0.00 0.00 79 1016.0
20260906052703 77 0 0.0 0.0 0.00 0.00 0.00 80 1016.1
20260906052017 77 0 0.0 0.0 0.00 0.00 0.00 80 1015.9
20260906050903 77 65 0.0 1.0 0.00 0.00 0.00 79 1015.9
20260906050004 76 66 0.0 2.0 0.00 0.00 0.00 81 1015.9
20260906045618 76 66 0.0 2.0 0.00 0.00 0.00 80 1016.0
20260906044503 77 0 0.0 0.0 0.00 0.00 0.00 78 1015.8
20260906043603 78 0 0.0 0.0 0.00 0.00 0.00 77 1015.9
20260906042703 78 0 0.0 0.0 0.00 0.00 0.00 77 1016.0
20260906041803 78 0 0.0 0.0 0.00 0.00 0.00 77 1016.0
20260906040903 78 0 0.0 0.0 0.00 0.00 0.00 76 1015.9
20260906040003 78 0 0.0 0.0 0.00 0.00 0.00 77 1015.9
20260906035403 78 0 0.0 0.0 0.00 0.00 0.00 77 1015.9
20260906034503 78 0 0.0 0.0 0.00 0.00 0.00 76 1015.9
20260906033603 79 0 0.0 0.0 0.00 0.00 0.00 73 1015.9
20260906032917 80 0 0.0 0.0 0.00 0.00 0.00 73 1015.8
20260906031803 80 0 0.0 0.0 0.00 0.00 0.00 73 1015.8
20260906030903 81 0 0.0 0.0 0.00 0.00 0.00 70 1015.7
20260906030004 82 0 0.0 0.0 0.00 0.00 0.00 69 1015.7
20260906025403 82 0 0.0 0.0 0.00 0.00 0.00 68 1015.6
20260906024718 83 0 0.0 0.0 0.00 0.00 0.00 66 1015.6
20260906023817 83 67 0.0 2.0 0.00 0.00 0.00 65 1015.6
20260906022703 84 65 1.0 2.0 0.00 0.00 0.00 63 1015.2
20260906021803 84 55 2.0 4.0 0.00 0.00 0.00 62 1015.3
20260906020903 85 62 1.0 3.0 0.00 0.00 0.00 61 1015.1
20260906020003 85 82 0.0 3.0 0.00 0.00 0.00 62 1015.0
20260906015403 86 81 1.0 5.0 0.00 0.00 0.00 58 1015.0
20260906014503 86 64 2.0 5.0 0.00 0.00 0.00 58 1014.7
20260906013817 87 61 3.0 5.0 0.00 0.00 0.00 57 1014.7
20260906012703 86 59 2.0 7.0 0.00 0.00 0.00 59 1014.6
20260906011803 85 45 1.0 7.0 0.00 0.00 0.00 60 1014.5
20260906010903 86 0 0.0 0.0 0.00 0.00 0.00 59 1014.4
20260906010003 87 32 0.0 2.0 0.00 0.00 0.00 56 1014.4
20260906005618 87 32 1.0 2.0 0.00 0.00 0.00 56 1014.3
20260906004503 87 32 0.0 1.0 0.00 0.00 0.00 55 1014.4
20260906003816 88 32 1.0 2.0 0.00 0.00 0.00 54 1014.4
20260906002703 89 36 1.0 4.0 0.00 0.00 0.00 52 1014.4
20260906001803 90 0 0.0 0.0 0.00 0.00 0.00 48 1014.3
20260906000903 91 0 0.0 0.0 0.00 0.00 0.00 47 1014.3
20260906000003 92 0 0.0 0.0 0.00 0.00 0.00 45 1014.3
20260905235618 92 0 0.0 0.0 0.00 0.00 0.00 45 1014.3
20260905234503 92 0 0.0 0.0 0.00 0.00 0.00 44 1014.3
20260905233818 93 0 0.0 0.0 0.00 0.00 0.00 43 1014.3
20260905232703 94 132 0.0 1.0 0.00 0.00 0.00 40 1014.2
20260905232017 95 132 0.0 2.0 0.00 0.00 0.00 38 1014.2
20260905230903 98 106 3.0 6.0 0.00 0.00 0.00 34 1014.3
20260905230003 96 65 1.0 4.0 0.00 0.00 0.00 37 1014.2
20260905225403 97 360 1.0 5.0 0.00 0.00 0.00 35 1014.2
20260905224503 98 64 3.0 8.0 0.00 0.00 0.00 33 1014.0
20260905223818 97 61 2.0 6.0 0.00 0.00 0.00 38 1014.0
20260905222703 98 45 1.0 5.0 0.00 0.00 0.00 37 1014.1
20260905221803 99 76 3.0 7.0 0.00 0.00 0.00 34 1014.1
20260905220903 99 98 4.0 8.0 0.00 0.00 0.00 34 1014.2
20260905220003 99 85 2.0 8.0 0.00 0.00 0.00 34 1014.3
20260905215403 99 85 3.0 8.0 0.00 0.00 0.00 37 1014.3
20260905214503 98 308 1.0 3.0 0.00 0.00 0.00 37 1014.4
20260905213817 98 312 2.0 4.0 0.00 0.00 0.00 37 1014.4
20260905212703 98 324 2.0 6.0 0.00 0.00 0.00 37 1014.5
20260905211803 99 284 1.0 3.0 0.00 0.00 0.00 37 1014.6
20260905210903 98 298 2.0 4.0 0.00 0.00 0.00 37 1014.8
20260905210003 98 7 3.0 9.0 0.00 0.00 0.00 38 1015.0
20260905205618 99 3 4.0 9.0 0.00 0.00 0.00 37 1015.1
20260905204503 100 63 4.0 9.0 0.00 0.00 0.00 36 1015.2
20260905203604 99 136 3.0 7.0 0.00 0.00 0.00 38 1015.3
20260905202703 99 109 3.0 7.0 0.00 0.00 0.00 40 1015.4
20260905202018 99 97 5.0 11.0 0.00 0.00 0.00 40 1015.4
20260905200903 99 81 3.0 9.0 0.00 0.00 0.00 39 1015.7
20260905200003 98 62 4.0 7.0 0.00 0.00 0.00 39 1015.8
20260905195403 99 81 3.0 8.0 0.00 0.00 0.00 39 1015.8
20260905194503 98 139 2.0 6.0 0.00 0.00 0.00 38 1016.0
20260905193603 98 125 2.0 6.0 0.00 0.00 0.00 41 1016.0
20260905192703 98 119 3.0 8.0 0.00 0.00 0.00 41 1016.1
20260905191803 97 32 4.0 12.0 0.00 0.00 0.00 43 1016.1
20260905191117 98 63 5.0 12.0 0.00 0.00 0.00 42 1016.3
20260905190218 98 89 4.0 11.0 0.00 0.00 0.00 42 1016.4
20260905185403 98 116 3.0 6.0 0.00 0.00 0.00 41 1016.6
20260905184503 96 85 3.0 8.0 0.00 0.00 0.00 43 1016.8
20260905183603 95 30 3.0 10.0 0.00 0.00 0.00 46 1016.9
20260905182703 94 108 2.0 10.0 0.00 0.00 0.00 48 1017.0
20260905181803 95 74 2.0 4.0 0.00 0.00 0.00 45 1017.1
20260905180903 95 350 3.0 8.0 0.00 0.00 0.00 46 1017.3
20260905180003 97 5 4.0 12.0 0.00 0.00 0.00 45 1017.4
20260905175403 96 18 3.0 11.0 0.00 0.00 0.00 45 1017.3
20260905174503 97 46 3.0 10.0 0.00 0.00 0.00 45 1017.5
20260905173603 96 34 5.0 9.0 0.00 0.00 0.00 45 1017.7
20260905172704 97 15 3.0 9.0 0.00 0.00 0.00 45 1017.8
20260905171803 96 43 4.0 10.0 0.00 0.00 0.00 47 1017.9
20260905170903 95 2 4.0 10.0 0.00 0.00 0.00 48 1018.0